When you browse on this site, cookies collect data to enhance your experience and personalize the content and advertising you see.
Visit our Privacy Policy to learn more. By continuing to use the site, you agree to this use of cookies and data.
  • In Lithuania
  • List of Countries
  • For 7 days
  • Water Temperature
  • Satellite Maps
  • Weather Map
  • Weather Widgets
  • user-avatar
    Login

    Hourly Weather Munich

    Today, 10 December, Monday

    Time Temperature Precipitation Wind Pressure Humidity
    00:00 +3°C° 0.5 mm 6 mps 712 mmHg 85%
    01:00 +2°C° 0 mm 6 mps 713 mmHg 85%
    02:00 +2°C° 0.6 mm 6 mps 713 mmHg 85%
    03:00 +2°C° 0.6 mm 6 mps 714 mmHg 84%
    04:00 +2°C° 0.6 mm 6 mps 714 mmHg 84%
    05:00 +2°C° 0.7 mm 6 mps 715 mmHg 84%
    06:00 +1°C° 0.7 mm 6 mps 715 mmHg 84%
    07:00 +1°C° 0.7 mm 6 mps 716 mmHg 84%
    08:00 0°C° 0.7 mm 7 mps 716 mmHg 84%
    09:00 0°C° 0.7 mm 7 mps 717 mmHg 84%
    10:00 0°C° 0.7 mm 7 mps 717 mmHg 84%
    11:00 0°C° 0.5 mm 7 mps 717 mmHg 82%
    12:00 +1°C° 0.5 mm 6 mps 717 mmHg 80%
    13:00 +1°C° 0.5 mm 6 mps 717 mmHg 78%
    14:00 +1°C° 0.4 mm 6 mps 717 mmHg 80%
    15:00 +1°C° 0.4 mm 5 mps 717 mmHg 82%
    16:00 0°C° 0.4 mm 5 mps 717 mmHg 84%
    17:00 0°C° 0.5 mm 5 mps 717 mmHg 85%
    18:00 0°C° 0.5 mm 5 mps 717 mmHg 87%
    19:00 0°C° 0.5 mm 5 mps 717 mmHg 88%
    20:00 0°C° 1 mm 5 mps 717 mmHg 89%
    21:00 0°C° 1 mm 5 mps 717 mmHg 90%
    22:00 -1°C° 1 mm 5 mps 717 mmHg 91%
    23:00 -1°C° 0.5 mm 4 mps 717 mmHg 91%

    Tomorrow, 11 December, Tuesday

    Time Temperature Precipitation Wind Pressure Humidity
    00:00 -2°C° 0.5 mm 4 mps 717 mmHg 91%
    01:00 -2°C° 0.5 mm 4 mps 717 mmHg 91%
    02:00 -3°C° 0.1 mm 4 mps 717 mmHg 91%
    03:00 -3°C° 0.1 mm 4 mps 718 mmHg 91%
    04:00 -3°C° 0.1 mm 4 mps 718 mmHg 91%
    05:00 -3°C° 0.2 mm 4 mps 718 mmHg 91%
    06:00 -4°C° 0.2 mm 5 mps 718 mmHg 91%
    07:00 -2°C° 0.2 mm 5 mps 718 mmHg 91%
    08:00 -2°C° 0.3 mm 5 mps 718 mmHg 91%
    09:00 -2°C° 0.3 mm 5 mps 718 mmHg 90%
    10:00 -3°C° 0.3 mm 6 mps 718 mmHg 90%
    11:00 -2°C° 0.2 mm 6 mps 718 mmHg 89%
    12:00 -2°C° 0.2 mm 6 mps 718 mmHg 88%
    13:00 -2°C° 0.2 mm 6 mps 718 mmHg 87%
    14:00 -1°C° 0.1 mm 5 mps 718 mmHg 87%
    15:00 -1°C° 0.1 mm 5 mps 718 mmHg 88%
    16:00 -1°C° 0.1 mm 4 mps 718 mmHg 88%
    17:00 -2°C° 0 mm 4 mps 718 mmHg 88%
    18:00 -2°C° 0 mm 4 mps 718 mmHg 89%
    19:00 -3°C° 0 mm 4 mps 719 mmHg 89%
    20:00 -3°C° 0.1 mm 4 mps 719 mmHg 89%
    21:00 -3°C° 0.1 mm 4 mps 719 mmHg 88%
    22:00 -4°C° 0.1 mm 4 mps 719 mmHg 88%
    23:00 -4°C° 0.1 mm 4 mps 719 mmHg 88%

    Day after tomorrow, 12 December, Wednesday

    Time Temperature Precipitation Wind Pressure Humidity
    00:00 -4°C° 0.1 mm 4 mps 718 mmHg 88%
    01:00 -5°C° 0.1 mm 4 mps 718 mmHg 88%
    02:00 -5°C° 0.1 mm 4 mps 718 mmHg 88%
    03:00 -5°C° 0.1 mm 3 mps 718 mmHg 88%
    04:00 -5°C° 0.1 mm 3 mps 718 mmHg 87%
    05:00 -5°C° 0.1 mm 3 mps 718 mmHg 87%
    06:00 -5°C° 0.1 mm 3 mps 718 mmHg 88%
    07:00 -6°C° 0.1 mm 3 mps 718 mmHg 88%
    08:00 -4°C° 0.1 mm 2 mps 718 mmHg 87%
    09:00 -3°C° 0.1 mm 2 mps 718 mmHg 87%
    10:00 -2°C° 0.1 mm 2 mps 718 mmHg 86%
    11:00 0°C° 0 mm 1 mps 718 mmHg 86%
    12:00 +1°C° 0 mm 1 mps 717 mmHg 86%
    13:00 +2°C° 0 mm 1 mps 717 mmHg 85%
    14:00 +1°C° 0 mm 1 mps 717 mmHg 88%
    15:00 +1°C° 0 mm 1 mps 716 mmHg 91%
    16:00 0°C° 0 mm 1 mps 716 mmHg 93%
    17:00 0°C° 0 mm 1 mps 716 mmHg 93%
    18:00 -1°C° 0 mm 1 mps 716 mmHg 93%
    19:00 -1°C° 0 mm 1 mps 717 mmHg 94%
    20:00 -2°C° 0 mm 1 mps 717 mmHg 93%
    21:00 -2°C° 0 mm 1 mps 717 mmHg 93%
    22:00 -3°C° 0 mm 1 mps 717 mmHg 93%
    23:00 -3°C° 0 mm 1 mps 716 mmHg 93%

    13 December, Thursday

    Time Temperature Precipitation Wind Pressure Humidity
    00:00 -4°C° 0 mm 1 mps 716 mmHg 92%
    01:00 -4°C° 0 mm 1 mps 716 mmHg 92%
    02:00 -4°C° 0 mm 1 mps 716 mmHg 92%
    03:00 -6°C° 0 mm 1 mps 715 mmHg 91%
    04:00 -6°C° 0 mm 1 mps 715 mmHg 91%
    05:00 -7°C° 0 mm 2 mps 715 mmHg 90%
    06:00 -7°C° 0 mm 2 mps 714 mmHg 89%
    07:00 -7°C° 0 mm 2 mps 714 mmHg 88%
    08:00 -6°C° 0 mm 2 mps 714 mmHg 87%
    09:00 -6°C° 0 mm 2 mps 714 mmHg 85%
    10:00 -5°C° 0 mm 2 mps 713 mmHg 83%
    11:00 -5°C° 0 mm 3 mps 713 mmHg 81%
    12:00 -4°C° 0 mm 3 mps 712 mmHg 80%
    13:00 -2°C° 0 mm 3 mps 712 mmHg 79%
    14:00 -4°C° 0 mm 3 mps 711 mmHg 83%
    15:00 -3°C° 0 mm 2 mps 711 mmHg 86%
    16:00 -4°C° 0 mm 2 mps 711 mmHg 90%
    17:00 -4°C° 0 mm 2 mps 711 mmHg 91%
    18:00 -5°C° 0 mm 2 mps 712 mmHg 92%
    19:00 -5°C° 0 mm 2 mps 712 mmHg 92%
    20:00 -5°C° 0 mm 2 mps 712 mmHg 92%
    21:00 -5°C° 0 mm 2 mps 712 mmHg 91%
    22:00 -5°C° 0 mm 2 mps 713 mmHg 91%
    23:00 -5°C° 0 mm 2 mps 713 mmHg 90%

    14 December, Friday

    Time Temperature Precipitation Wind Pressure Humidity
    00:00 -5°C° 0 mm 2 mps 713 mmHg 90%
    01:00 -5°C° 0 mm 2 mps 713 mmHg 89%
    02:00 -5°C° 0 mm 2 mps 713 mmHg 89%
    03:00 -3°C° 0 mm 1 mps 713 mmHg 88%
    04:00 -3°C° 0 mm 1 mps 713 mmHg 88%
    05:00 -3°C° 0 mm 1 mps 713 mmHg 88%
    06:00 -2°C° 0 mm 1 mps 714 mmHg 87%
    07:00 -2°C° 0 mm 1 mps 714 mmHg 87%
    08:00 -1°C° 0 mm 1 mps 715 mmHg 85%
    09:00 -1°C° 0 mm 1 mps 715 mmHg 84%
    10:00 0°C° 0 mm 1 mps 715 mmHg 82%
    11:00 0°C° 0 mm 0 mps 716 mmHg 81%
    12:00 0°C° 0 mm 0 mps 716 mmHg 81%
    13:00 +1°C° 0 mm 0 mps 716 mmHg 80%
    14:00 +1°C° 0 mm 0 mps 717 mmHg 82%
    15:00 0°C° 0 mm 0 mps 717 mmHg 85%
    16:00 0°C° 0 mm 0 mps 718 mmHg 87%
    17:00 0°C° 0 mm 0 mps 719 mmHg 88%
    18:00 0°C° 0 mm 1 mps 719 mmHg 88%
    19:00 0°C° 0 mm 1 mps 720 mmHg 89%
    20:00 0°C° 0 mm 1 mps 720 mmHg 89%
    21:00 -1°C° 0 mm 1 mps 721 mmHg 89%
    22:00 -1°C° 0 mm 1 mps 721 mmHg 90%
    23:00 -1°C° 0 mm 1 mps 721 mmHg 90%

    15 December, Saturday

    Time Temperature Precipitation Wind Pressure Humidity
    00:00 -1°C° 0 mm 1 mps 722 mmHg 90%
    01:00 -1°C° 0 mm 1 mps 722 mmHg 90%
    02:00 -1°C° 0 mm 1 mps 722 mmHg 90%
    03:00 -1°C° 0 mm 1 mps 723 mmHg 89%
    04:00 -1°C° 0 mm 1 mps 723 mmHg 89%
    05:00 -1°C° 0 mm 1 mps 723 mmHg 89%
    06:00 -1°C° 0 mm 1 mps 724 mmHg 89%
    07:00 -1°C° 0 mm 1 mps 724 mmHg 89%
    08:00 0°C° 0 mm 1 mps 724 mmHg 87%
    09:00 +1°C° 0 mm 1 mps 724 mmHg 85%
    10:00 +2°C° 0 mm 1 mps 724 mmHg 84%
    11:00 +3°C° 0 mm 1 mps 723 mmHg 84%
    12:00 +2°C° 0 mm 0 mps 723 mmHg 84%
    13:00 +3°C° 0 mm 0 mps 722 mmHg 84%
    14:00 +3°C° 0 mm 0 mps 722 mmHg 86%
    15:00 +3°C° 0 mm 1 mps 723 mmHg 88%
    16:00 +2°C° 0 mm 1 mps 723 mmHg 90%
    17:00 +1°C° 0 mm 1 mps 723 mmHg 90%
    18:00 +1°C° 0 mm 1 mps 723 mmHg 90%
    19:00 +1°C° 0 mm 1 mps 723 mmHg 89%
    20:00 0°C° 0 mm 1 mps 723 mmHg 88%
    21:00 0°C° 0 mm 1 mps 723 mmHg 87%
    22:00 0°C° 0 mm 1 mps 723 mmHg 86%
    23:00 0°C° 0 mm 1 mps 723 mmHg 85%
    Show more